TimeMDT,TemperatureF,Dew PointF,Humidity,Sea Level PressureIn,VisibilityMPH,Wind Direction,Wind SpeedMPH,Gust SpeedMPH,PrecipitationIn,Events,Conditions,WindDirDegrees,DateUTC
12:04 AM,48.2,46.4,93,30.12,10.0,WNW,4.6,-,N/A,,Overcast,290,2013-05-20 06:04:00
12:27 AM,48.2,46.4,93,30.12,10.0,NNW,5.8,-,N/A,,Overcast,330,2013-05-20 06:27:00
12:51 AM,48.2,46.4,93,30.11,10.0,WNW,11.5,-,N/A,,Overcast,300,2013-05-20 06:51:00
12:54 AM,48.0,46.0,93,30.11,10.0,WNW,10.4,-,N/A,,Overcast,300,2013-05-20 06:54:00
1:01 AM,48.2,46.4,93,30.11,10.0,WNW,10.4,-,N/A,,Overcast,300,2013-05-20 07:01:00
1:23 AM,48.2,46.4,93,30.12,10.0,WNW,9.2,-,N/A,,Overcast,300,2013-05-20 07:23:00
1:43 AM,46.4,46.4,100,30.12,10.0,WNW,6.9,-,N/A,,Overcast,300,2013-05-20 07:43:00
2:21 AM,46.4,46.4,100,30.11,10.0,WNW,10.4,-,0.00,,Overcast,300,2013-05-20 08:21:00
2:33 AM,46.4,46.4,100,30.12,10.0,WNW,12.7,-,0.00,,Overcast,300,2013-05-20 08:33:00
2:54 AM,46.9,46.0,97,30.11,10.0,WNW,12.7,-,0.00,,Overcast,300,2013-05-20 08:54:00
2:57 AM,46.4,46.4,100,30.11,10.0,WNW,11.5,-,N/A,,Overcast,300,2013-05-20 08:57:00
3:46 AM,46.4,46.4,100,30.12,7.0,NW,11.5,-,N/A,,Overcast,310,2013-05-20 09:46:00
3:54 AM,46.9,46.0,97,30.12,7.0,WNW,11.5,-,N/A,,Overcast,300,2013-05-20 09:54:00
4:12 AM,46.4,46.4,100,30.13,6.0,WNW,9.2,-,N/A,,Overcast,300,2013-05-20 10:12:00
4:54 AM,46.9,46.0,97,30.13,7.0,WNW,9.2,-,N/A,,Overcast,300,2013-05-20 10:54:00
5:54 AM,46.9,46.0,97,30.14,8.0,WNW,8.1,-,N/A,,Overcast,300,2013-05-20 11:54:00
6:54 AM,46.9,46.0,97,30.15,7.0,WNW,11.5,-,N/A,,Overcast,300,2013-05-20 12:54:00
8:54 AM,48.0,46.0,93,30.17,10.0,NW,9.2,-,N/A,,Overcast,310,2013-05-20 14:54:00
9:51 AM,50.0,46.4,87,30.17,10.0,NW,9.2,-,N/A,,Overcast,320,2013-05-20 15:51:00
9:54 AM,50.0,46.9,89,30.16,10.0,WNW,10.4,-,N/A,,Overcast,300,2013-05-20 15:54:00
10:54 AM,52.0,48.0,86,30.15,10.0,NW,11.5,-,N/A,,Overcast,310,2013-05-20 16:54:00
11:33 AM,55.4,46.4,72,30.16,10.0,NW,11.5,19.6,N/A,,Mostly Cloudy,320,2013-05-20 17:33:00
11:54 AM,55.9,48.0,75,30.14,10.0,WNW,13.8,21.9,N/A,,Mostly Cloudy,300,2013-05-20 17:54:00
12:54 PM,57.0,46.9,69,30.12,10.0,NW,9.2,16.1,0.00,,Mostly Cloudy,320,2013-05-20 18:54:00
1:54 PM,52.0,45.0,77,30.14,10.0,WNW,15.0,-,0.00,,Overcast,300,2013-05-20 19:54:00
2:54 PM,55.0,44.1,67,30.13,10.0,West,13.8,-,0.00,,Partly Cloudy,260,2013-05-20 20:54:00
3:54 PM,59.0,46.0,62,30.11,10.0,Variable,5.8,-,N/A,,Mostly Cloudy,0,2013-05-20 21:54:00
4:54 PM,62.1,44.1,52,30.09,10.0,NNW,8.1,16.1,N/A,,Mostly Cloudy,340,2013-05-20 22:54:00
5:54 PM,61.0,44.1,54,30.09,10.0,NW,9.2,16.1,N/A,,Scattered Clouds,310,2013-05-20 23:54:00
6:54 PM,60.1,26.1,27,30.09,10.0,NE,6.9,-,N/A,,Clear,50,2013-05-21 00:54:00
8:54 PM,51.1,30.0,44,30.13,10.0,WSW,4.6,-,N/A,,Scattered Clouds,240,2013-05-21 02:54:00
9:54 PM,48.0,39.9,74,30.14,10.0,SW,5.8,-,N/A,,Overcast,230,2013-05-21 03:54:00
10:54 PM,45.0,34.0,65,30.14,10.0,South,8.1,-,N/A,,Clear,190,2013-05-21 04:54:00
11:54 PM,41.0,35.1,79,30.14,10.0,SSE,4.6,-,N/A,,Clear,150,2013-05-21 05:54:00